Weather in Karakoksha

Russia / Altai Republic     51°45′59″N   86°41′50″E
temp.,
°C
wind,
m/s
gust,
m/s
humid.,
%
clouds,
%
prec.,
mm/h
press.,
hPa
HPBL,
m
13 may, thu
thu1301:00+5ssw239197 0.4 101746
04:00+5ssw229076 0.1 101629
07:00+7ssw228198 0.1 101654
10:00+15ese014766 0.1 10141463
13:00+15nw1142100 0.4 10131967
16:00+13nw2264100 0.8 1014445
19:00+12se236671 1.3 1013322
22:00+8wsw2178100 0.0 101416
14 may, fri
fri1401:00+7sse119286 1.1 101618
04:00+7s119172 0.2 101512
07:00+8w018890 0.2 101652
10:00+9nnw128699 0.1 1017273
13:00+12n227385 0.6 10181018
16:00+9wnw258990 1.5 1019323
19:00+9w259043 3.7 1022168
22:00+8ssw229097 1.1 102438
15 may, sat
sat1501:00+6ssw2289100 1.1 102533
04:00+5ssw2289100 0.0 102619
07:00+7sw1185100 0.0 102737
10:00+12nne116446 0.0 1026619
13:00+16n224356 0.0 10241355
16:00+17nne22449 0.0 10231513
19:00+16ne11563 0.0 1023394
22:00+10s22784 0.0 102326
16 may, sun
sun1601:00+9s228048 0.0 102217
04:00+8s22785 0.0 102221
07:00+11s12695 0.0 102046
10:00+19nnw12445 0.0 1019788
13:00+22nw34335 0.0 10172097
16:00+23nw4535100 0.0 10162789
19:00+19w2363100 0.4 101579
22:00+13ssw2384100 1.3 101747
17 may, mon
mon1701:00+12ssw1192100 4.4 101722
04:00+10sw2295100 2.8 101726
07:00+13s11857 3.0 101840
10:00+18nnw22665 0.4 1017459
13:00+20nw245517 1.3 10161500
16:00+21nw444675 0.3 10151883
19:00+19wnw24675 0.7 1016352
22:00+13ssw22875 0.1 101725